Temperature
6 6 6 6 6 6 6 6 6 5 5 5 5 5 5 5 5 4 4 4 4 4 4 4 4 4 3 3 3 3 3 3 3 3 2 2 2 2
6 6 6 5 5 5 5 5 5 5 5 5 5 4 4 4 4 4 4 4 4 4 4 3 3 3 3 3 3 3 2 2 2 2 2 2 2 2
5 5 5 5 5 5 5 5 4 4 4 4 4 4 4 4 4 4 3 3 3 3 3 3 3 3 2 2 2 2 2 2 2 1 1 1 1 1
5 5 5 5 4 4 4 4 4 4 4 4 4 3 3 3 3 3 3 3 3 3 3 2 2 2 2 2 2 2 1 1 1 1 1 1 1 1
5 4 4 4 4 4 4 4 4 3 3 3 3 3 3 2 2 2 2 2 2 2 2 2 1 1 1 1 1 1 1 1 1 1 1 0 0 0
4 4 4 4 4 4 3 3 3 3 3 3 2 2 2 2 2 2 2 2 2 2 1 1 1 1 1 1 1 1 1 0 0 0 0 0 -0 -0
4 3 3 3 3 3 3 3 3 3 2 2 2 2 1 1 1 1 1 1 1 1 1 1 1 1 1 1 1 0 0 -0 -0 -0 -0 -0 -0 -0
3 3 3 3 3 3 2 2 2 2 2 2 2 1 1 1 1 0 0 0 0 0 0 1 0 0 0 0 0 -0 -0 -1 -1 -1 -1 -1 -1 -1
3 3 2 2 2 2 2 2 2 2 1 1 1 1 1 1 0 0 -0 -0 -0 -0 -0 -0 0 -0 -0 -0 -0 -0 -1 -1 -1 -1 -1 -1 -1 -1
2 2 2 2 2 2 2 2 2 2 1 1 1 1 0 0 -0 -0 -1 -1 -1 -1 -1 -1 -0 -0 -0 -0 -1 -1 -1 -1 -1 -1 -1 -2 -2 -2
1 1 1 1 1 1 1 1 1 1 1 1 1 0 -0 -0 -0 -1 -1 -1 -1 -1 -1 -1 -1 -1 -1 -1 -1 -1 -1 -1 -2 -2 -2 -2 -2 -2
1 1 1 1 1 1 1 1 1 1 1 0 0 -0 -0 -1 -1 -1 -1 -2 -2 -2 -2 -2 -2 -2 -2 -1 -1 -1 -2 -2 -2 -2 -2 -2 -2 -2
0 0 1 1 1 0 0 0 0 0 0 -0 -0 -1 -1 -1 -1 -1 -2 -2 -2 -2 -2 -3 -3 -3 -3 -3 -2 -2 -2 -2 -2 -2 -2 -3 -3 -3
0 0 0 0 0 -0 -0 -0 -0 -0 -1 -1 -1 -1 -1 -1 -2 -2 -2 -2 -2 -3 -3 -3 -3 -3 -4 -4 -3 -2 -2 -2 -3 -3 -3 -3 -3 -3
-0 -0 -0 -0 -0 -1 -1 -1 -1 -1 -1 -1 -1 -1 -2 -2 -2 -2 -2 -3 -3 -3 -3 -3 -3 -3 -4 -4 -4 -3 -3 -3 -3 -3 -3 -3 -3 -3
-1 -1 -1 -1 -1 -1 -1 -1 -1 -1 -1 -2 -2 -2 -2 -2 -3 -3 -3 -3 -3 -3 -3 -3 -4 -4 -4 -4 -4 -4 -4 -4 -4 -3 -3 -3 -3 -3
-2 -2 -2 -2 -2 -2 -2 -2 -2 -2 -2 -2 -2 -2 -3 -3 -3 -3 -3 -3 -3 -3 -3 -3 -4 -4 -4 -4 -4 -4 -4 -4 -4 -4 -4 -4 -3 -4
-2 -2 -2 -2 -2 -2 -2 -3 -3 -3 -3 -3 -3 -3 -3 -3 -3 -4 -4 -4 -4 -4 -4 -4 -4 -4 -4 -4 -4 -4 -4 -5 -4 -4 -5 -5 -4 -4
-3 -3 -3 -3 -3 -3 -3 -3 -3 -3 -3 -3 -3 -3 -4 -4 -4 -4 -4 -4 -5 -4 -4 -5 -5 -5 -5 -5 -5 -5 -5 -5 -5 -5 -5 -5 -5 -4
-4 -4 -4 -4 -4 -4 -4 -4 -4 -4 -4 -4 -4 -4 -4 -4 -5 -5 -5 -5 -5 -5 -5 -5 -5 -6 -6 -6 -6 -5 -5 -5 -5 -5 -5 -5 -5 -5
-4 -4 -4 -4 -4 -4 -4 -4 -4 -4 -4 -4 -4 -4 -5 -5 -5 -5 -5 -5 -5 -5 -5 -5 -5 -6 -6 -6 -6 -5 -5 -5 -5 -6 -5 -5 -5 -5
-4 -5 -5 -5 -5 -5 -5 -5 -5 -5 -5 -5 -5 -5 -5 -5 -5 -5 -5 -6 -6 -6 -6 -6 -6 -6 -6 -6 -6 -6 -6 -5 -5 -5 -6 -6 -6 -6
-5 -5 -5 -5 -5 -5 -5 -5 -5 -5 -5 -5 -5 -5 -5 -5 -6 -6 -6 -6 -6 -6 -6 -6 -6 -6 -6 -7 -7 -6 -6 -6 -6 -6 -5 -6 -6 -6
Wind_Speed
5 5 3 2 3 3 3 4 4 3 4 4 2 2 4 4 4 4 4 5 6 6 7 6 6 6 6 6 6 6 7 7 8 9 10 10 11 11
4 5 4 3 3 3 3 3 3 4 4 3 3 2 3 3 4 4 5 6 7 8 8 7 7 7 6 6 7 7 7 8 9 10 10 11 11 12
5 6 5 4 3 3 3 3 3 3 3 3 2 2 2 2 3 4 5 5 6 8 8 8 8 8 7 7 7 7 8 8 9 10 11 11 12 13
6 6 5 4 4 4 3 4 3 3 3 3 2 2 2 2 2 2 4 5 6 7 8 8 8 7 7 7 7 8 8 9 10 11 11 12 12 13
6 7 6 6 5 4 4 4 3 3 2 3 3 2 2 1 1 2 3 4 6 7 7 7 7 7 8 8 8 9 9 10 11 11 12 12 13 14
5 6 6 7 7 6 5 5 4 3 3 2 2 2 2 1 1 2 3 2 4 5 6 7 8 8 8 9 9 9 10 11 11 12 13 13 13 14
5 5 5 6 7 7 5 5 5 4 3 3 3 2 2 2 2 2 3 3 3 2 3 4 6 6 7 9 9 10 11 12 12 13 13 14 14 14
5 4 4 5 7 7 7 7 7 6 6 5 4 4 4 3 3 2 2 2 4 2 2 4 4 4 6 8 10 11 12 13 13 13 14 14 14 14
5 5 4 4 5 5 5 5 5 7 7 6 6 6 5 5 4 4 3 4 5 3 2 5 3 5 6 9 11 12 12 12 13 13 13 14 14 15
5 5 5 5 5 5 4 4 4 4 5 4 5 6 5 4 5 4 4 3 3 3 2 4 4 4 6 8 10 10 10 12 13 13 14 14 15 15
4 4 5 5 7 7 5 5 4 3 4 6 6 5 5 5 4 2 2 2 4 3 2 2 3 4 4 4 7 9 10 12 13 13 14 14 14 14
3 4 6 6 7 8 6 6 6 4 3 2 2 2 2 2 4 4 4 3 3 3 2 2 2 2 3 3 4 7 9 11 13 14 14 14 14 11
3 3 4 7 7 7 6 6 6 4 3 3 2 2 1 1 1 2 3 3 3 4 3 1 2 2 3 4 4 5 6 7 9 11 12 13 13 11
4 3 4 6 6 6 5 5 6 4 2 2 2 2 2 2 2 2 3 4 4 5 5 4 2 3 3 5 5 4 5 7 7 7 8 11 12 12
3 4 4 4 4 3 4 4 4 3 3 2 3 3 2 2 1 1 1 1 2 3 4 5 4 3 3 5 5 5 5 5 5 5 6 7 7 8
2 3 3 3 2 2 2 2 2 3 3 3 2 2 1 1 1 1 1 1 2 3 3 4 5 4 4 5 5 7 5 4 4 6 7 7 8 8
2 2 2 2 2 1 1 1 1 1 1 2 2 2 1 1 1 1 1 1 2 3 3 3 4 4 5 5 5 6 6 5 6 6 6 7 7 7
3 3 2 2 2 2 2 1 1 1 1 2 2 2 2 2 2 1 1 2 2 3 3 3 3 3 3 3 6 6 5 5 5 5 5 6 8 7
2 2 2 2 2 2 2 2 2 1 1 2 2 2 2 2 2 2 2 2 3 3 3 3 2 1 3 5 4 5 4 5 5 5 5 5 7 8
1 2 2 2 2 2 2 2 2 1 1 2 2 2 2 2 2 3 3 3 3 3 3 2 2 3 4 4 4 5 7 5 4 6 6 6 6 10
1 1 1 1 1 2 2 2 2 2 2 2 2 2 2 2 3 3 3 4 3 3 4 4 4 5 2 2 4 5 5 7 7 5 5 6 6 6
1 1 1 2 2 2 2 2 2 2 2 2 2 2 3 3 3 3 3 3 3 3 4 3 3 2 1 2 5 6 6 7 9 10 9 7 4 4
2 2 2 2 2 2 3 3 3 3 3 3 2 2 2 3 3 3 3 3 3 3 3 3 3 2 2 3 4 5 6 7 5 6 6 9 11 13
Wind_Direction
186 182 179 185 180 178 167 166 166 203 241 245 245 253 237 225 241 242 254 271 277 279 279 283 286 282 282 287 291 294 296 297 298 298 297 299 301 302
187 181 185 185 181 177 176 177 174 183 222 232 229 242 234 239 254 257 263 276 279 279 274 272 275 278 281 283 283 288 291 291 291 292 293 295 298 299
188 187 194 184 183 182 176 179 183 177 213 247 239 246 230 236 265 259 266 271 276 278 272 273 275 274 276 279 282 289 291 292 292 292 292 293 295 297
194 190 197 188 188 190 188 193 194 188 193 223 242 241 244 245 244 257 278 277 277 277 273 273 273 274 276 278 281 287 291 291 291 292 292 293 295 296
195 194 197 187 197 200 197 199 198 192 187 199 229 238 251 262 268 284 286 284 284 283 281 272 272 274 277 278 280 284 287 288 288 289 291 292 293 294
196 198 199 197 199 199 199 200 190 182 176 186 213 232 241 261 242 268 289 277 286 290 284 279 277 276 276 280 282 283 285 287 289 290 290 289 289 290
200 205 205 201 201 203 201 196 188 188 187 195 216 231 235 234 242 237 266 283 286 272 279 280 276 273 276 279 280 279 281 283 286 288 289 289 289 290
204 209 210 205 204 206 206 202 195 193 200 207 222 233 238 232 225 236 253 286 286 265 267 280 261 261 268 272 277 279 278 281 285 287 288 289 288 289
204 203 209 211 202 196 200 204 212 212 208 207 218 230 229 223 213 224 233 247 261 273 269 275 268 264 269 279 281 278 278 282 287 289 291 292 291 290
206 203 205 208 203 189 185 200 216 222 220 218 220 229 227 216 210 218 229 247 278 275 246 266 277 275 286 281 280 281 285 289 291 292 294 293 292 292
210 204 201 205 203 192 187 196 215 233 228 221 226 232 233 225 203 180 210 251 278 275 245 249 280 297 287 272 275 287 292 293 294 295 297 296 296 295
205 208 210 208 203 200 198 196 211 224 208 208 226 240 233 216 212 203 205 225 263 269 242 238 270 313 299 276 272 290 295 295 297 299 298 297 298 299
203 213 218 209 207 206 206 207 212 206 193 193 205 211 211 215 223 219 212 211 227 248 241 217 252 267 266 291 295 281 285 291 299 299 298 299 300 299
205 210 210 200 202 204 207 201 196 189 181 186 200 218 230 238 247 246 234 234 239 247 242 226 234 249 271 286 288 291 293 292 291 290 294 299 300 297
197 188 183 183 183 189 192 195 188 184 184 199 215 225 230 231 239 263 272 279 295 286 257 252 242 246 251 265 275 284 295 290 288 290 297 296 293 294
168 160 158 154 153 163 170 182 180 189 191 201 205 208 208 201 206 219 244 274 293 302 304 278 261 239 254 262 263 275 277 273 289 300 302 296 292 284
145 132 129 134 140 135 127 132 143 152 185 187 182 182 191 197 225 231 247 267 259 276 297 312 310 277 252 253 262 265 273 277 280 294 301 302 296 288
130 137 152 161 171 174 171 170 180 192 203 193 189 193 200 209 227 248 252 247 260 272 283 295 313 325 318 272 236 251 270 275 288 295 290 297 298 295
133 150 169 181 188 184 182 196 215 219 211 206 203 202 202 211 223 240 252 264 271 275 281 284 290 293 304 304 285 239 261 287 296 299 288 286 289 295
148 169 186 192 194 195 198 207 213 215 217 218 216 208 206 216 231 238 241 251 261 274 282 276 262 257 258 274 283 290 285 273 283 294 300 299 290 293
175 186 194 198 204 204 206 209 213 219 224 220 226 222 215 222 238 243 246 258 267 266 270 276 272 288 289 292 293 293 295 295 288 282 293 302 304 306
214 219 221 219 214 211 211 213 219 221 220 223 225 229 221 223 235 243 245 248 254 259 271 282 293 302 290 269 281 290 302 314 317 311 292 275 277 287
244 233 228 228 225 219 216 217 223 226 225 227 229 231 231 233 239 240 244 245 248 258 274 291 302 302 287 271 277 288 297 307 314 321 312 307 298 289
Height
1516 1518 1520 1522 1524 1525 1526 1527 1528 1528 1528 1529 1529 1530 1530 1531 1530 1530 1529 1529 1529 1528 1528 1528 1527 1527 1526 1525 1524 1523 1522 1521 1520 1519 1517 1516 1515 1514
1512 1514 1516 1518 1519 1521 1522 1523 1524 1525 1524 1525 1525 1526 1527 1527 1527 1526 1526 1525 1525 1524 1524 1523 1523 1522 1522 1521 1519 1518 1517 1516 1515 1514 1513 1512 1510 1509
1508 1510 1512 1514 1515 1516 1518 1519 1520 1521 1520 1521 1522 1523 1523 1523 1522 1522 1522 1521 1520 1520 1519 1519 1518 1518 1517 1516 1515 1514 1513 1512 1510 1509 1508 1507 1506 1504
1503 1505 1507 1509 1510 1512 1513 1514 1515 1516 1517 1517 1517 1518 1519 1519 1518 1518 1517 1517 1516 1515 1515 1514 1514 1513 1512 1511 1510 1509 1508 1507 1506 1504 1503 1502 1501 1499
1499 1501 1503 1504 1506 1507 1509 1510 1511 1512 1513 1513 1513 1514 1514 1514 1514 1513 1513 1512 1512 1511 1510 1510 1509 1508 1508 1507 1506 1505 1503 1502 1501 1499 1498 1497 1495 1494
1495 1496 1498 1500 1501 1503 1504 1505 1506 1507 1508 1508 1509 1509 1509 1509 1509 1508 1507 1507 1507 1506 1506 1505 1504 1504 1503 1502 1501 1500 1498 1497 1496 1494 1493 1492 1490 1489
1490 1492 1493 1495 1497 1499 1500 1501 1502 1503 1503 1504 1504 1504 1504 1504 1504 1504 1503 1502 1502 1501 1501 1500 1499 1498 1498 1497 1496 1494 1493 1492 1490 1489 1488 1486 1485 1483
1486 1488 1489 1491 1492 1494 1496 1497 1498 1499 1499 1499 1500 1500 1500 1500 1500 1500 1499 1498 1497 1497 1496 1495 1495 1493 1492 1491 1491 1489 1488 1487 1485 1484 1482 1480 1479 1477
1482 1483 1485 1487 1488 1490 1491 1492 1493 1494 1495 1496 1495 1495 1496 1496 1496 1496 1495 1494 1493 1493 1492 1489 1489 1488 1487 1486 1485 1484 1483 1481 1480 1478 1476 1474 1473 1471
1477 1479 1481 1482 1484 1485 1487 1488 1488 1489 1490 1491 1491 1491 1492 1492 1492 1492 1491 1490 1489 1488 1488 1485 1483 1482 1482 1481 1480 1478 1477 1476 1474 1472 1470 1468 1467 1465
1473 1475 1476 1478 1480 1481 1483 1483 1483 1484 1485 1486 1487 1487 1487 1488 1488 1487 1486 1485 1483 1483 1482 1481 1478 1476 1475 1474 1474 1473 1472 1470 1468 1466 1464 1462 1460 1458
1468 1470 1472 1474 1475 1476 1478 1478 1479 1479 1481 1481 1481 1482 1482 1483 1483 1482 1482 1481 1479 1478 1477 1477 1474 1473 1470 1468 1468 1468 1466 1464 1463 1461 1458 1457 1455 1452
1464 1466 1468 1469 1471 1472 1473 1474 1474 1476 1476 1476 1476 1477 1477 1478 1478 1478 1477 1477 1476 1474 1474 1473 1471 1469 1468 1464 1462 1462 1461 1459 1457 1455 1453 1451 1449 1446
1461 1462 1464 1465 1466 1467 1468 1469 1470 1471 1471 1471 1472 1471 1472 1472 1473 1473 1472 1472 1471 1471 1470 1469 1467 1465 1463 1460 1458 1456 1456 1454 1452 1449 1447 1445 1443 1441
1457 1458 1459 1460 1461 1463 1464 1465 1465 1466 1466 1467 1467 1467 1467 1468 1468 1468 1468 1467 1467 1466 1466 1464 1463 1461 1460 1457 1454 1452 1450 1448 1447 1445 1442 1439 1437 1435
1453 1454 1455 1456 1457 1458 1459 1460 1461 1462 1462 1462 1463 1463 1463 1463 1463 1463 1463 1463 1462 1462 1461 1460 1458 1457 1455 1453 1451 1448 1447 1445 1442 1440 1437 1434 1432 1430
1450 1450 1451 1452 1453 1454 1455 1456 1457 1457 1458 1458 1459 1459 1459 1459 1459 1459 1459 1459 1458 1457 1456 1455 1454 1453 1451 1450 1447 1445 1443 1441 1438 1436 1433 1429 1427 1426
1447 1447 1448 1449 1450 1451 1452 1452 1453 1454 1454 1455 1455 1455 1455 1456 1456 1456 1455 1455 1454 1453 1452 1451 1449 1448 1446 1445 1444 1441 1439 1437 1434 1432 1429 1426 1422 1421
1445 1445 1445 1446 1447 1448 1448 1449 1450 1450 1451 1451 1451 1451 1452 1452 1452 1452 1452 1451 1450 1449 1448 1448 1446 1444 1442 1440 1438 1438 1435 1433 1430 1428 1425 1423 1419 1416
1442 1443 1443 1444 1444 1445 1445 1446 1447 1447 1447 1448 1448 1448 1448 1448 1448 1448 1448 1448 1447 1446 1445 1444 1443 1442 1440 1438 1435 1433 1433 1430 1426 1424 1421 1419 1416 1413
1440 1440 1441 1442 1442 1442 1443 1443 1443 1444 1444 1444 1445 1445 1445 1445 1445 1445 1445 1444 1444 1443 1441 1441 1440 1439 1437 1435 1433 1430 1429 1427 1424 1421 1418 1415 1411 1408
1438 1438 1439 1439 1439 1439 1439 1440 1440 1440 1441 1441 1441 1441 1442 1442 1442 1442 1441 1441 1440 1440 1439 1438 1437 1435 1434 1432 1429 1426 1424 1423 1421 1419 1416 1413 1409 1405
1436 1436 1436 1436 1436 1436 1436 1437 1437 1437 1437 1438 1438 1438 1438 1438 1438 1438 1438 1438 1437 1436 1435 1434 1433 1432 1431 1429 1427 1424 1421 1419 1417 1414 1413 1411 1408 1405